Weather History for Danville, IL

Change the Weather History Date:

Wednesday, December 18, 2013

  Actual Average (KLAF) Record (KLAF)
Temperature  
Mean Temperature 23 °F 29 °F  
Max Temperature 36 °F 36 °F 59 °F (2002)
Min Temperature 10 °F 22 °F -9 °F (1985)
Degree Days  
Heating Degree Days 42 36  
Month to date heating degree days 591  
Since 1 July heating degree days 1692  
Cooling Degree Days 0 0  
Month to date cooling degree days 0  
Year to date cooling degree days 983  
Moisture  
Dew Point 16 °F    
Average Humidity 68    
Maximum Humidity 86    
Minimum Humidity 47    
Precipitation  
Precipitation 0.00 in 0.08 in 0.44 in (1957)
Month to date precipitation 1.55  
Year to date precipitation 35.62  
Sea Level Pressure  
Sea Level Pressure 30.07 in    
Wind  
Wind Speed 12 mph (SSW)    
Max Wind Speed 28 mph    
Max Gust Speed 41 mph    
Visibility 10 miles    
Events      
T = Trace of Precipitation, MM = Missing Value Source: NWS Daily Summary

Daily Weather History Graph

Daily Weather History Graph

Search for Another Location

Airport:

Trip Planner

Search our weather history database for the weather conditions in past years. The results will help you decide how hot, cold, wet, or windy it might be!

Date:

Astronomy

Dec. 18, 2013 Rise Set
Actual Time 7:07 AM CST 4:26 PM CST
Civil Twilight 6:37 AM CST 4:57 PM CST
Nautical Twilight 6:02 AM CST 5:31 PM CST
Astronomical Twilight 5:29 AM CST 6:04 PM CST
Moon 5:58 PM CST (12/18) 7:47 AM CST (12/18)
Length of Visible Light 10h 20m
Length of Day
9h 18m
Full, 98% of the Moon is Illuminated
Dec 18
Full
Dec 25
Last Quarter
Jan 1
New
Jan 7
First Quarter
Jan 15
Full

Hourly Weather History & Observations

Time (CST) Temp. Windchill Dew Point Humidity Pressure Visibility Wind Dir Wind Speed Gust Speed Precip Events Conditions
12:15 AM 20.8 °F 7.3 °F 13.6 °F 74% 30.13 in 10.0 mi West 15.0 mph - N/A   Clear
12:35 AM 20.8 °F 7.9 °F 13.3 °F 73% 30.13 in 10.0 mi West 13.8 mph - N/A   Clear
12:55 AM 19.9 °F 7.3 °F 12.9 °F 74% 30.13 in 10.0 mi West 12.7 mph - N/A   Clear
1:15 AM 17.6 °F 5.7 °F 11.8 °F 78% 30.14 in 10.0 mi West 10.4 mph - N/A   Clear
1:35 AM 17.4 °F 5.4 °F 12.0 °F 79% 30.13 in 10.0 mi West 10.4 mph - N/A   Clear
1:55 AM 17.8 °F 4.6 °F 12.0 °F 78% 30.14 in 10.0 mi West 12.7 mph - N/A   Clear
2:15 AM 19.2 °F 7.7 °F 12.4 °F 75% 30.15 in 10.0 mi West 10.4 mph - N/A   Clear
2:35 AM 18.5 °F 6.1 °F 11.7 °F 75% 30.15 in 10.0 mi West 11.5 mph - N/A   Clear
2:55 AM 18.1 °F 5.6 °F 11.3 °F 75% 30.15 in 10.0 mi West 11.5 mph - N/A   Clear
3:15 AM 16.9 °F 6.4 °F 10.4 °F 76% 30.16 in 10.0 mi WNW 8.1 mph - N/A   Clear
3:35 AM 14.9 °F 3.1 °F 9.3 °F 79% 30.15 in 10.0 mi West 9.2 mph - N/A   Clear
3:55 AM 15.1 °F 2.5 °F 9.5 °F 79% 30.16 in 10.0 mi West 10.4 mph - N/A   Clear
4:15 AM 14.7 °F 2.9 °F 9.3 °F 79% 30.16 in 10.0 mi West 9.2 mph - N/A   Clear
4:35 AM 14.9 °F 4.0 °F 9.5 °F 79% 30.16 in 10.0 mi West 8.1 mph - N/A   Clear
4:55 AM 14.0 °F 8.2 °F 9.3 °F 82% 30.17 in 10.0 mi WSW 3.5 mph - N/A   Clear
5:15 AM 13.5 °F 5.8 °F 9.7 °F 85% 30.17 in 10.0 mi WSW 4.6 mph - N/A   Clear
5:35 AM 13.8 °F 4.9 °F 9.9 °F 84% 30.18 in 10.0 mi SW 5.8 mph - N/A   Clear
5:55 AM 13.1 °F 5.4 °F 9.1 °F 84% 30.18 in 10.0 mi SW 4.6 mph - N/A   Clear
6:15 AM 12.2 °F 2.9 °F 8.4 °F 85% 30.18 in 10.0 mi SW 5.8 mph - N/A   Clear
6:35 AM 11.3 °F 3.3 °F 7.7 °F 85% 30.19 in 10.0 mi SW 4.6 mph - N/A   Clear
6:55 AM 11.8 °F 3.9 °F 8.2 °F 85% 30.19 in 10.0 mi SSW 4.6 mph - N/A   Clear
7:15 AM 12.0 °F 5.9 °F 8.2 °F 85% 30.19 in 10.0 mi SSW 3.5 mph - N/A   Clear
7:35 AM 10.2 °F 2.0 °F 6.8 °F 86% 30.20 in 10.0 mi SW 4.6 mph - N/A   Clear
7:55 AM 10.0 °F 1.8 °F 6.6 °F 86% 30.20 in 10.0 mi SW 4.6 mph - N/A   Clear
8:15 AM 10.2 °F -0.6 °F 6.3 °F 84% 30.20 in 10.0 mi SSW 6.9 mph - N/A   Clear
8:35 AM 13.3 °F 4.2 °F 7.9 °F 79% 30.20 in 10.0 mi SW 5.8 mph - N/A   Clear
8:55 AM 14.5 °F 7.1 °F 8.6 °F 77% 30.20 in 10.0 mi SW 4.6 mph - N/A   Clear
9:15 AM 16.5 °F 8.1 °F 9.1 °F 73% 30.20 in 10.0 mi SW 5.8 mph - N/A   Clear
9:35 AM 18.7 °F 9.5 °F 10.6 °F 71% 30.20 in 10.0 mi SW 6.9 mph - N/A   Clear
9:55 AM 19.9 °F 12.1 °F 11.7 °F 70% 30.20 in 10.0 mi South 5.8 mph - N/A   Clear
10:15 AM 21.0 °F 12.4 °F 12.7 °F 70% 30.19 in 10.0 mi South 6.9 mph - N/A   Clear
10:35 AM 22.6 °F 13.4 °F 13.1 °F 67% 30.18 in 10.0 mi South 8.1 mph - N/A   Clear
10:55 AM 24.1 °F 13.1 °F 13.6 °F 64% 30.18 in 10.0 mi South 11.5 mph - N/A   Clear
11:15 AM 24.8 °F 14.6 °F 14.7 °F 66% 30.18 in 10.0 mi South 10.4 mph - N/A   Clear
11:35 AM 26.4 °F 15.0 °F 14.5 °F 61% 30.16 in 10.0 mi SSW 13.8 mph - N/A   Clear
11:55 AM 27.3 °F 18.4 °F 15.4 °F 61% 30.15 in 10.0 mi South 9.2 mph - N/A   Clear
12:15 PM 28.9 °F 17.7 °F 15.8 °F 58% 30.13 in 10.0 mi SSW 15.0 mph - N/A   Clear
12:35 PM 29.8 °F 21.5 °F 16.7 °F 58% 30.12 in 10.0 mi SSW 9.2 mph - N/A   Clear
12:55 PM 30.6 °F 19.8 °F 16.7 °F 56% 30.10 in 10.0 mi South 15.0 mph 18.4 mph N/A   Clear
1:15 PM 30.9 °F 22.2 °F 16.3 °F 55% 30.09 in 10.0 mi South 10.4 mph - N/A   Clear
1:35 PM 31.6 °F 21.2 °F 15.8 °F 52% 30.08 in 10.0 mi South 15.0 mph - N/A   Clear
1:55 PM 32.4 °F 23.0 °F 15.3 °F 49% 30.06 in 10.0 mi South 12.7 mph - N/A   Clear
2:15 PM 32.4 °F 23.5 °F 15.4 °F 50% 30.04 in 10.0 mi SSE 11.5 mph - N/A   Clear
2:35 PM 32.2 °F 21.8 °F 16.0 °F 51% 30.01 in 10.0 mi SSE 15.0 mph - N/A   Clear
2:55 PM 32.2 °F 23.2 °F 16.2 °F 52% 30.00 in 10.0 mi SSE 11.5 mph - N/A   Clear
3:15 PM 32.9 °F 22.0 °F 15.8 °F 49% 29.98 in 10.0 mi SSE 17.3 mph 20.7 mph N/A   Clear
3:35 PM 33.3 °F 22.5 °F 15.1 °F 47% 29.97 in 10.0 mi South 17.3 mph 21.9 mph N/A   Clear
3:55 PM 32.9 °F 21.6 °F 17.1 °F 52% 29.97 in 10.0 mi South 18.4 mph 23.0 mph N/A   Clear
4:15 PM 32.4 °F 20.6 °F 17.6 °F 55% 29.97 in 10.0 mi South 19.6 mph - N/A   Clear
4:35 PM 32.2 °F 21.1 °F 18.5 °F 57% 29.96 in 10.0 mi South 17.3 mph 23.0 mph N/A   Clear
4:55 PM 32.0 °F 20.5 °F 19.8 °F 61% 29.95 in 10.0 mi South 18.4 mph 25.3 mph N/A   Clear
5:15 PM 32.2 °F 20.7 °F 20.3 °F 62% 29.95 in 10.0 mi South 18.4 mph 26.5 mph N/A   Clear
5:35 PM 32.4 °F 20.0 °F 21.2 °F 63% 29.94 in 10.0 mi South 21.9 mph 25.3 mph N/A   Clear
5:55 PM 32.9 °F 21.0 °F 21.4 °F 63% 29.94 in 10.0 mi South 20.7 mph 27.6 mph N/A   Clear
6:15 PM 33.3 °F 21.2 °F 21.6 °F 62% 29.93 in 10.0 mi South 21.9 mph 26.5 mph N/A   Clear
6:35 PM 33.8 °F 22.2 °F 21.9 °F 62% 29.93 in 10.0 mi South 20.7 mph - N/A   Clear
6:55 PM 34.2 °F 22.6 °F 22.6 °F 63% 29.92 in 10.0 mi South 20.7 mph 28.8 mph N/A   Clear
7:15 PM 35.1 °F 23.5 °F 23.2 °F 62% 29.92 in 10.0 mi South 21.9 mph 28.8 mph N/A   Clear
7:35 PM 36.9 °F 25.1 °F 24.3 °F 60% 29.90 in 7.0 mi SSW 25.3 mph 41.4 mph N/A   Clear
7:55 PM 36.0 °F 23.5 °F 24.6 °F 63% 29.90 in 7.0 mi SSW 27.6 mph 38.0 mph N/A   Clear
8:15 PM 36.1 °F 24.4 °F 24.4 °F 63% 29.90 in 10.0 mi SSW 24.2 mph 33.4 mph N/A   Clear
8:35 PM 36.0 °F 24.2 °F 24.3 °F 63% 29.91 in 10.0 mi SSW 24.2 mph 33.4 mph N/A   Clear
8:55 PM 35.6 °F 24.5 °F 24.3 °F 63% 29.91 in 10.0 mi SSW 20.7 mph 28.8 mph N/A   Clear
9:15 PM 35.6 °F 24.2 °F 24.8 °F 65% 29.91 in 10.0 mi SSW 21.9 mph 29.9 mph N/A   Clear
9:35 PM 36.0 °F 25.3 °F 24.8 °F 64% 29.92 in 10.0 mi SSW 19.6 mph 29.9 mph N/A   Clear
9:55 PM 35.8 °F 24.8 °F 24.8 °F 64% 29.92 in 10.0 mi SSW 20.7 mph 26.5 mph N/A   Clear
10:15 PM 36.1 °F 25.0 °F 25.5 °F 65% 29.91 in 10.0 mi SSW 21.9 mph 28.8 mph N/A   Clear
10:35 PM 36.1 °F 25.2 °F 25.7 °F 66% 29.91 in 10.0 mi SSW 20.7 mph 26.5 mph N/A   Clear
10:55 PM 36.5 °F 26.3 °F 26.1 °F 66% 29.91 in 10.0 mi SSW 18.4 mph 26.5 mph N/A   Clear
11:15 PM 36.5 °F 26.3 °F 26.6 °F 67% 29.91 in 10.0 mi SSW 18.4 mph - N/A   Clear
11:35 PM 36.5 °F 26.0 °F 26.8 °F 68% 29.91 in 10.0 mi SSW 19.6 mph 25.3 mph N/A   Clear
11:55 PM 36.5 °F 26.0 °F 27.3 °F 69% 29.90 in 10.0 mi SSW 19.6 mph 25.3 mph N/A   Clear